"read_dt","SO2 (ppb)","flags","PMT voltage (V)","lamp voltage (V)","lamp intensity (Hz)","internal temp (C)","react chamber temp (C)","sample flow (l/min)","pres (mmHg)","SO2 bkg (ppb)","SO2 coefficient"
2014-02-25 00:00:00,5050E-2,5C000490,-0724,1374,6183,019.4,045.0,0.137,772.2,01.15,0.508
2014-02-25 00:01:00,4957E-2,5C000490,-0724,1374,6153,019.4,045.0,0.137,772.2,01.15,0.508
2014-02-25 00:02:00,5014E-2,5C000490,-0724,1374,6110,019.4,045.1,0.137,772.2,01.15,0.508
2014-02-25 00:03:00,5061E-2,5C000490,-0724,1374,6155,019.4,045.1,0.137,772.2,01.15,0.508
2014-02-25 00:04:00,5039E-2,5C000490,-0724,1374,6120,019.4,045.0,0.137,772.1,01.15,0.508
2014-02-25 00:05:00,4950E-2,5C000490,-0724,1374,6025,019.4,045.0,0.137,772.2,01.15,0.508
2014-02-25 00:06:00,5015E-2,5C000490,-0724,1374,6035,019.4,045.0,0.137,772.2,01.15,0.508
2014-02-25 00:07:00,5041E-2,5C000490,-0724,1374,6150,019.4,045.0,0.137,772.1,01.15,0.508
2014-02-25 00:08:00,5056E-2,5C000490,-0724,1374,6043,019.4,045.0,0.137,772.1,01.15,0.508
2014-02-25 00:09:00,4986E-2,5C000490,-0724,1374,6116,019.4,045.0,0.137,772.2,01.15,0.508
2014-02-25 00:10:00,5031E-2,5C000490,-0724,1374,6135,019.4,045.0,0.138,772.2,01.15,0.508
2014-02-25 00:11:00,4994E-2,5C000490,-0724,1374,6060,019.4,045.0,0.138,772.1,01.15,0.508
2014-02-25 00:12:00,5030E-2,5C000490,-0724,1374,6102,019.4,045.0,0.137,772.2,01.15,0.508
2014-02-25 00:13:00,5069E-2,5C000490,-0724,1374,6118,019.4,045.1,0.137,772.2,01.15,0.508
2014-02-25 00:14:00,5040E-2,5C000490,-0724,1374,5990,019.4,045.0,0.137,772.2,01.15,0.508
2014-02-25 00:15:00,5006E-2,5C000490,-0724,1374,6015,019.4,045.1,0.137,772.1,01.15,0.508
2014-02-25 00:16:00,5233E-2,5C000490,-0724,1374,6026,019.4,045.0,0.137,772.1,01.15,0.508
2014-02-25 00:17:00,5326E-2,5C000490,-0724,1374,6053,019.4,045.0,0.137,772.1,01.15,0.508
2014-02-25 00:18:00,5302E-2,5C000490,-0724,1374,5994,019.4,045.0,0.137,772.1,01.15,0.508
2014-02-25 00:19:00,5307E-2,5C000490,-0724,1374,6127,019.4,045.0,0.137,772.0,01.15,0.508
2014-02-25 00:20:00,5341E-2,5C000490,-0724,1374,6115,019.4,045.0,0.138,772.1,01.15,0.508
2014-02-25 00:21:00,5289E-2,5C000490,-0724,1374,5869,019.4,045.0,0.137,772.2,01.15,0.508
2014-02-25 00:22:00,5337E-2,5C000490,-0724,1374,6010,019.4,045.0,0.137,772.0,01.15,0.508
2014-02-25 00:23:00,5305E-2,5C000490,-0724,1374,6009,019.4,045.0,0.137,772.0,01.15,0.508
2014-02-25 00:24:00,5314E-2,5C000490,-0724,1374,6016,019.3,045.0,0.137,772.1,01.15,0.508
2014-02-25 00:25:00,5297E-2,5C000490,-0724,1374,6016,019.4,045.0,0.137,772.1,01.15,0.508
2014-02-25 00:26:00,5300E-2,5C000490,-0724,1374,5944,019.4,045.0,0.138,772.0,01.15,0.508
2014-02-25 00:27:00,5369E-2,5C000490,-0724,1374,5954,019.3,045.0,0.137,772.0,01.15,0.508
2014-02-25 00:28:00,5320E-2,5C000490,-0724,1374,5845,019.4,045.0,0.137,772.1,01.15,0.508
2014-02-25 00:29:00,5243E-2,5C000490,-0724,1374,5910,019.3,045.0,0.137,772.1,01.15,0.508
2014-02-25 00:30:00,5100E-2,5C000490,-0724,1374,5972,019.3,045.0,0.138,772.0,01.15,0.508
2014-02-25 00:31:00,5025E-2,5C000490,-0724,1374,5953,019.4,045.0,0.137,772.0,01.15,0.508
2014-02-25 00:32:00,5085E-2,5C000490,-0724,1374,5909,019.4,045.0,0.138,772.1,01.15,0.508
2014-02-25 00:33:00,5077E-2,5C000490,-0724,1374,5987,019.4,045.0,0.138,772.1,01.15,0.508
2014-02-25 00:34:00,4987E-2,5C000490,-0724,1374,5920,019.4,045.0,0.138,772.0,01.15,0.508
2014-02-25 00:35:00,5094E-2,5C000490,-0724,1374,5941,019.4,045.0,0.138,772.1,01.15,0.508
2014-02-25 00:36:00,5091E-2,5C000490,-0724,1374,5863,019.4,045.0,0.137,772.0,01.15,0.508
2014-02-25 00:37:00,5027E-2,5C000490,-0724,1374,5913,019.4,045.0,0.138,772.0,01.15,0.508
2014-02-25 00:38:00,5015E-2,5C000490,-0724,1374,5879,019.4,045.0,0.138,772.0,01.15,0.508
2014-02-25 00:39:00,5008E-2,5C000490,-0724,1374,5963,019.4,045.1,0.137,772.1,01.15,0.508
2014-02-25 00:40:00,5090E-2,5C000490,-0724,1374,5940,019.4,045.1,0.137,772.0,01.15,0.508
2014-02-25 00:41:00,4984E-2,5C000490,-0724,1374,5894,019.4,045.0,0.138,772.0,01.15,0.508
2014-02-25 00:42:00,5020E-2,5C000490,-0724,1374,5849,019.4,045.1,0.137,772.0,01.15,0.508
2014-02-25 00:43:00,5036E-2,5C000490,-0724,1374,5880,019.4,045.0,0.137,772.0,01.15,0.508
2014-02-25 00:44:00,5043E-2,5C000490,-0724,1374,5803,019.4,045.0,0.137,772.0,01.15,0.508
2014-02-25 00:45:00,5068E-2,5C000490,-0724,1374,5856,019.4,045.0,0.138,772.0,01.15,0.508
2014-02-25 00:46:00,5024E-2,5C000490,-0724,1374,5935,019.4,045.0,0.137,772.0,01.15,0.508
2014-02-25 00:47:00,5086E-2,5C000490,-0724,1374,5850,019.4,045.1,0.138,772.1,01.15,0.508
2014-02-25 00:48:00,5041E-2,5C000490,-0724,1374,5862,019.4,045.0,0.137,772.0,01.15,0.508
2014-02-25 00:49:00,5065E-2,5C000490,-0724,1374,5776,019.4,045.0,0.137,771.9,01.15,0.508
2014-02-25 00:50:00,5050E-2,5C000490,-0724,1374,5790,019.4,045.0,0.137,772.0,01.15,0.508
2014-02-25 00:51:00,5068E-2,5C000490,-0724,1374,5771,019.4,045.0,0.137,772.1,01.15,0.508
2014-02-25 00:52:00,5080E-2,5C000490,-0724,1374,5804,019.4,045.0,0.137,772.1,01.15,0.508
2014-02-25 00:53:00,5096E-2,5C000490,-0724,1374,5823,019.4,045.0,0.138,771.9,01.15,0.508
2014-02-25 00:54:00,5190E-2,5C000490,-0724,1374,5820,019.4,045.0,0.137,771.9,01.15,0.508
2014-02-25 00:55:00,5132E-2,5C000490,-0724,1374,5792,019.4,045.1,0.137,772.1,01.15,0.508
2014-02-25 00:56:00,5144E-2,5C000490,-0724,1374,5745,019.4,045.1,0.137,772.0,01.15,0.508
2014-02-25 00:57:00,5167E-2,5C000490,-0724,1374,5746,019.4,045.0,0.137,771.9,01.15,0.508
2014-02-25 00:58:00,5132E-2,5C000490,-0724,1374,5755,019.4,045.0,0.137,771.9,01.15,0.508
2014-02-25 00:59:00,5256E-2,5C000490,-0724,1374,5810,019.4,045.0,0.137,771.9,01.15,0.508
2014-02-25 01:00:00,5139E-2,5C000490,-0724,1374,5756,019.4,045.0,0.137,772.0,01.15,0.508
2014-02-25 01:01:00,5184E-2,5C000490,-0724,1374,5759,019.4,045.0,0.137,772.0,01.15,0.508
2014-02-25 01:02:00,5202E-2,5C000490,-0724,1374,5760,019.4,045.0,0.137,772.0,01.15,0.508
2014-02-25 01:03:00,5151E-2,5C000490,-0724,1374,5718,019.4,045.0,0.137,772.0,01.15,0.508
2014-02-25 01:04:00,5145E-2,5C000490,-0724,1374,5703,019.4,045.0,0.137,772.0,01.15,0.508
2014-02-25 01:05:00,5229E-2,5C000490,-0724,1374,5738,019.4,045.0,0.137,771.9,01.15,0.508
2014-02-25 01:06:00,5197E-2,5C000490,-0724,1374,5763,019.4,045.0,0.137,772.0,01.15,0.508
2014-02-25 01:07:00,5166E-2,5C000490,-0724,1374,5795,019.4,045.0,0.137,772.0,01.15,0.508
2014-02-25 01:08:00,5155E-2,5C000490,-0724,1374,5652,019.4,045.1,0.137,772.0,01.15,0.508
2014-02-25 01:09:00,5187E-2,5C000490,-0724,1374,5691,019.4,045.0,0.137,771.9,01.15,0.508
2014-02-25 01:10:00,5281E-2,5C000490,-0724,1374,5700,019.4,045.0,0.137,772.0,01.15,0.508
2014-02-25 01:11:00,5231E-2,5C000490,-0724,1374,5761,019.4,045.1,0.137,772.0,01.15,0.508
2014-02-25 01:12:00,5245E-2,5C000490,-0724,1374,5808,019.4,045.0,0.137,771.9,01.15,0.508
2014-02-25 01:13:00,5234E-2,5C000490,-0724,1374,5717,019.4,045.0,0.137,771.9,01.15,0.508
2014-02-25 01:14:00,5182E-2,5C000490,-0724,1374,5827,019.4,045.0,0.137,772.0,01.15,0.508
2014-02-25 01:15:00,5228E-2,5C000490,-0724,1374,5825,019.4,045.1,0.137,772.0,01.15,0.508
2014-02-25 01:16:00,5184E-2,5C000490,-0724,1374,5773,019.4,045.0,0.137,771.9,01.15,0.508
2014-02-25 01:17:00,5200E-2,5C000490,-0724,1374,5754,019.4,045.0,0.137,771.9,01.15,0.508
2014-02-25 01:18:00,5219E-2,5C000490,-0724,1374,5744,019.4,045.1,0.137,772.0,01.15,0.508
2014-02-25 01:19:00,5207E-2,5C000490,-0724,1374,5775,019.5,045.0,0.137,771.9,01.15,0.508
2014-02-25 01:20:00,5194E-2,5C000490,-0724,1374,5745,019.4,045.0,0.137,771.9,01.15,0.508
2014-02-25 01:21:00,5249E-2,5C000490,-0724,1374,5752,019.5,045.0,0.137,772.0,01.15,0.508
2014-02-25 01:22:00,5172E-2,5C000490,-0724,1374,5730,019.4,045.0,0.137,771.9,01.15,0.508
2014-02-25 01:23:00,5174E-2,5C000490,-0724,1374,5772,019.5,045.0,0.137,771.9,01.15,0.508
2014-02-25 01:24:00,5212E-2,5C000490,-0724,1374,5746,019.5,045.0,0.137,772.0,01.15,0.508
2014-02-25 01:25:00,5219E-2,5C000490,-0724,1374,5735,019.5,045.0,0.137,772.0,01.15,0.508
2014-02-25 01:26:00,5189E-2,5C000490,-0724,1374,5722,019.5,045.0,0.137,771.9,01.15,0.508
2014-02-25 01:27:00,5269E-2,5C000490,-0724,1374,5695,019.5,045.0,0.137,771.9,01.15,0.508
2014-02-25 01:28:00,5307E-2,5C000490,-0724,1374,5690,019.5,045.0,0.137,771.9,01.15,0.508
2014-02-25 01:29:00,5263E-2,5C000490,-0724,1374,5676,019.5,045.0,0.137,771.9,01.15,0.508
2014-02-25 01:30:00,5296E-2,5C000490,-0724,1374,5688,019.5,045.1,0.137,772.0,01.15,0.508
2014-02-25 01:31:00,5306E-2,5C000490,-0724,1374,5730,019.5,045.1,0.137,771.9,01.15,0.508
2014-02-25 01:32:00,5327E-2,5C000490,-0724,1374,5668,019.5,045.1,0.137,771.9,01.15,0.508
2014-02-25 01:33:00,5293E-2,5C000490,-0724,1374,5637,019.5,045.0,0.137,772.0,01.15,0.508
2014-02-25 01:34:00,5253E-2,5C000490,-0724,1374,5735,019.5,045.0,0.137,772.0,01.15,0.508
2014-02-25 01:35:00,5245E-2,5C000490,-0724,1374,5715,019.5,045.0,0.137,771.9,01.15,0.508
2014-02-25 01:36:00,5264E-2,5C000490,-0724,1374,5713,019.6,045.0,0.137,771.9,01.15,0.508
2014-02-25 01:37:00,5309E-2,5C000490,-0724,1375,5573,019.5,045.0,0.137,771.9,01.15,0.508
2014-02-25 01:38:00,5205E-2,5C000490,-0724,1374,5631,019.6,045.1,0.137,772.0,01.15,0.508
2014-02-25 01:39:00,5177E-2,5C000490,-0724,1374,5650,019.6,045.1,0.137,772.0,01.15,0.508
2014-02-25 01:40:00,5267E-2,5C000490,-0724,1374,5595,019.6,045.1,0.137,771.8,01.15,0.508
2014-02-25 01:41:00,5184E-2,5C000490,-0724,1374,5705,019.6,045.0,0.137,771.8,01.15,0.508
2014-02-25 01:42:00,5233E-2,5C000490,-0724,1374,5623,019.6,045.0,0.137,771.9,01.15,0.508
2014-02-25 01:43:00,5264E-2,5C000490,-0724,1374,5596,019.6,045.0,0.137,771.9,01.15,0.508
2014-02-25 01:44:00,5216E-2,5C000490,-0724,1374,5595,019.6,045.0,0.137,772.0,01.15,0.508
2014-02-25 01:45:00,5259E-2,5C000490,-0724,1374,5666,019.6,045.1,0.137,771.9,01.15,0.508
2014-02-25 01:46:00,5254E-2,5C000490,-0724,1374,5688,019.6,045.0,0.137,771.8,01.15,0.508
2014-02-25 01:47:00,5265E-2,5C000490,-0724,1374,5645,019.6,045.1,0.137,771.9,01.15,0.508
2014-02-25 01:48:00,5234E-2,5C000490,-0724,1374,5657,019.6,045.0,0.137,771.9,01.15,0.508
2014-02-25 01:49:00,5276E-2,5C000490,-0724,1374,5565,019.6,045.1,0.137,771.9,01.15,0.508
2014-02-25 01:50:00,5213E-2,5C000490,-0724,1374,5563,019.6,045.0,0.137,771.9,01.15,0.508
2014-02-25 01:51:00,5278E-2,5C000490,-0724,1374,5609,019.6,045.0,0.137,771.9,01.15,0.508
2014-02-25 01:52:00,5281E-2,5C000490,-0724,1374,5620,019.6,045.0,0.137,771.8,01.15,0.508
2014-02-25 01:53:00,5312E-2,5C000490,-0724,1374,5591,019.6,045.0,0.137,771.8,01.15,0.508
2014-02-25 01:54:00,5312E-2,5C000490,-0724,1374,5598,019.6,045.1,0.137,771.8,01.15,0.508
2014-02-25 01:55:00,5340E-2,5C000490,-0724,1374,5582,019.5,045.0,0.137,771.8,01.15,0.508
2014-02-25 01:56:00,5274E-2,5C000490,-0724,1374,5519,019.5,045.0,0.137,771.9,01.15,0.508
2014-02-25 01:57:00,5305E-2,5C000490,-0724,1374,5545,019.4,045.0,0.137,771.9,01.15,0.508
2014-02-25 01:58:00,5329E-2,5C000490,-0724,1374,5486,019.4,045.0,0.137,771.8,01.15,0.508
2014-02-25 01:59:00,5272E-2,5C000490,-0724,1374,5458,019.4,045.0,0.137,772.0,01.15,0.508
2014-02-25 02:00:00,5268E-2,5C000490,-0724,1374,5479,019.4,045.1,0.137,771.9,01.15,0.508
2014-02-25 02:01:00,5335E-2,5C000490,-0724,1374,5497,019.4,045.0,0.137,771.8,01.15,0.508
2014-02-25 02:02:00,5318E-2,5C000490,-0724,1374,5498,019.3,045.0,0.137,771.8,01.15,0.508
2014-02-25 02:03:00,5286E-2,5C000490,-0724,1374,5429,019.3,045.0,0.137,771.9,01.15,0.508
2014-02-25 02:04:00,5319E-2,5C000490,-0724,1374,5803,019.3,045.0,0.137,771.9,01.15,0.508
2014-02-25 02:05:00,6079E-2,5C000490,-0724,1374,5682,019.3,045.0,0.137,771.9,01.15,0.508
2014-02-25 02:06:00,6075E-2,5C000490,-0724,1374,5680,019.3,045.0,0.138,771.9,01.15,0.508
2014-02-25 02:07:00,6086E-2,5C000490,-0724,1374,5655,019.3,045.0,0.137,771.8,01.15,0.508
2014-02-25 02:08:00,6026E-2,5C000490,-0724,1374,5607,019.3,045.0,0.138,771.8,01.15,0.508
2014-02-25 02:09:00,6065E-2,5C000490,-0724,1374,5580,019.3,045.0,0.138,771.9,01.15,0.508
2014-02-25 02:10:00,6014E-2,5C000490,-0724,1374,5455,019.3,045.1,0.138,772.0,01.15,0.508
2014-02-25 02:11:00,6032E-2,5C000490,-0724,1374,5534,019.3,045.0,0.138,771.9,01.15,0.508
2014-02-25 02:12:00,5995E-2,5C000490,-0724,1374,5512,019.3,045.0,0.138,771.7,01.15,0.508
2014-02-25 02:13:00,6059E-2,5C000490,-0724,1374,5468,019.3,045.0,0.138,771.8,01.15,0.508
2014-02-25 02:14:00,6015E-2,5C000490,-0724,1374,5469,019.4,045.0,0.138,771.8,01.15,0.508
2014-02-25 02:15:00,6021E-2,5C000490,-0724,1374,5459,019.4,045.0,0.138,771.8,01.15,0.508
2014-02-25 02:16:00,6082E-2,5C000490,-0724,1374,5415,019.4,045.0,0.137,771.9,01.15,0.508
2014-02-25 02:17:00,6030E-2,5C000490,-0724,1374,5401,019.4,045.1,0.137,771.8,01.15,0.508
2014-02-25 02:18:00,6019E-2,5C000490,-0724,1374,5379,019.4,045.0,0.138,771.8,01.15,0.508
2014-02-25 02:19:00,6023E-2,5C000490,-0724,1374,5391,019.4,045.1,0.138,771.9,01.15,0.508
2014-02-25 02:20:00,6004E-2,5C000490,-0724,1374,5242,019.4,045.0,0.137,771.8,01.15,0.508
2014-02-25 02:21:00,5972E-2,5C000490,-0724,1374,5308,019.4,045.0,0.138,771.8,01.15,0.508
2014-02-25 02:22:00,5980E-2,5C000490,-0724,1374,5350,019.4,045.1,0.138,771.8,01.15,0.508
2014-02-25 02:23:00,6002E-2,5C000490,-0724,1374,5248,019.4,045.0,0.137,771.8,01.15,0.508
2014-02-25 02:24:00,6009E-2,5C000490,-0724,1374,5244,019.5,045.0,0.137,771.9,01.15,0.508
2014-02-25 02:25:00,5940E-2,5C000490,-0724,1374,5303,019.4,045.0,0.137,771.9,01.15,0.508
2014-02-25 02:26:00,5971E-2,5C000490,-0724,1374,5230,019.5,045.0,0.137,771.9,01.15,0.508
2014-02-25 02:27:00,5978E-2,5C000490,-0724,1374,5232,019.5,045.0,0.137,771.8,01.15,0.508
2014-02-25 02:28:00,6001E-2,5C000490,-0724,1374,5287,019.5,045.0,0.137,771.9,01.15,0.508
2014-02-25 02:29:00,5985E-2,5C000490,-0724,1374,5181,019.5,045.1,0.137,771.9,01.15,0.508
2014-02-25 02:30:00,5985E-2,5C000490,-0724,1374,5235,019.5,045.1,0.137,771.9,01.15,0.508
2014-02-25 02:31:00,5962E-2,5C000490,-0724,1374,5255,019.6,045.1,0.137,771.8,01.15,0.508
2014-02-25 02:32:00,5993E-2,5C000490,-0724,1374,5244,019.6,045.1,0.137,771.9,01.15,0.508
2014-02-25 02:33:00,5980E-2,5C000490,-0724,1374,5245,019.6,045.1,0.137,771.9,01.15,0.508
2014-02-25 02:34:00,5962E-2,5C000490,-0724,1374,5077,019.5,045.1,0.137,771.9,01.15,0.508
2014-02-25 02:35:00,5987E-2,5C000490,-0724,1374,5208,019.5,045.1,0.137,771.9,01.15,0.508
2014-02-25 02:36:00,5960E-2,5C000490,-0724,1374,5156,019.5,045.1,0.137,771.9,01.15,0.508
2014-02-25 02:37:00,5955E-2,5C000490,-0724,1374,5204,019.5,045.0,0.137,771.9,01.15,0.508
2014-02-25 02:38:00,5964E-2,5C000490,-0724,1374,5168,019.6,045.1,0.137,772.0,01.15,0.508
2014-02-25 02:39:00,5952E-2,5C000490,-0724,1374,5185,019.6,045.1,0.137,771.8,01.15,0.508
2014-02-25 02:40:00,5926E-2,5C000490,-0724,1374,5153,019.6,045.0,0.137,771.8,01.15,0.508
2014-02-25 02:41:00,5821E-2,5C000490,-0724,1374,5174,019.6,045.0,0.137,771.8,01.15,0.508
2014-02-25 02:42:00,5818E-2,5C000490,-0724,1374,5069,019.6,045.0,0.137,771.9,01.15,0.508
2014-02-25 02:43:00,5825E-2,5C000490,-0724,1374,5145,019.6,045.0,0.137,771.9,01.15,0.508
2014-02-25 02:44:00,5802E-2,5C000490,-0724,1374,5186,019.6,045.0,0.137,771.8,01.15,0.508
2014-02-25 02:45:00,5787E-2,5C000490,-0724,1374,5126,019.7,045.0,0.137,771.9,01.15,0.508
2014-02-25 02:46:00,5822E-2,5C000490,-0724,1374,5141,019.6,045.0,0.136,771.9,01.15,0.508
2014-02-25 02:47:00,5820E-2,5C000490,-0724,1374,5171,019.7,045.1,0.137,771.8,01.15,0.508
2014-02-25 02:48:00,5823E-2,5C000490,-0724,1374,5124,019.7,045.0,0.136,771.8,01.15,0.508
2014-02-25 02:49:00,5746E-2,5C000490,-0724,1374,5121,019.7,045.0,0.136,771.8,01.15,0.508
2014-02-25 02:50:00,5820E-2,5C000490,-0724,1374,5022,019.8,045.0,0.136,771.9,01.15,0.508
2014-02-25 02:51:00,5799E-2,5C000490,-0724,1374,5130,019.7,045.0,0.136,771.9,01.15,0.508
2014-02-25 02:52:00,5803E-2,5C000490,-0724,1374,5124,019.7,045.0,0.136,771.8,01.15,0.508
2014-02-25 02:53:00,5793E-2,5C000490,-0724,1374,5065,019.7,045.0,0.136,771.8,01.15,0.508
2014-02-25 02:54:00,5782E-2,5C000490,-0724,1374,5033,019.8,045.0,0.136,771.9,01.15,0.508
2014-02-25 02:55:00,5761E-2,5C000490,-0724,1374,5065,019.8,045.1,0.136,772.0,01.15,0.508
2014-02-25 02:56:00,5787E-2,5C000490,-0724,1374,5077,019.8,045.1,0.136,771.8,01.15,0.508
2014-02-25 02:57:00,5792E-2,5C000490,-0724,1374,5106,019.8,045.1,0.136,771.8,01.15,0.508
2014-02-25 02:58:00,5846E-2,5C000490,-0724,1374,5037,019.8,045.1,0.136,771.8,01.15,0.508
2014-02-25 02:59:00,5781E-2,5C000490,-0724,1375,4988,019.8,045.0,0.136,771.9,01.15,0.508
2014-02-25 03:00:00,5794E-2,5C000490,-0724,1374,5047,019.8,045.1,0.136,771.9,01.15,0.508
2014-02-25 03:01:00,5413E-2,5C000490,-0724,1374,6624,019.8,045.1,0.136,771.9,01.15,0.508
2014-02-25 03:02:00,4919E-2,5C000490,-0724,1374,6585,019.8,045.1,0.136,771.8,01.15,0.508
2014-02-25 03:03:00,4933E-2,5C000490,-0724,1374,6466,019.8,045.0,0.136,771.9,01.15,0.508
2014-02-25 03:04:00,4920E-2,5C000490,-0724,1374,6393,019.9,045.1,0.136,772.0,01.15,0.508
2014-02-25 03:05:00,4969E-2,5C000490,-0724,1374,6376,019.8,045.1,0.136,771.9,01.15,0.508
2014-02-25 03:06:00,4934E-2,5C000490,-0724,1374,6370,019.9,045.1,0.136,771.8,01.15,0.508
2014-02-25 03:07:00,4939E-2,5C000490,-0724,1374,6294,019.9,045.0,0.136,771.8,01.15,0.508
2014-02-25 03:08:00,4999E-2,5C000490,-0724,1374,6296,019.9,045.0,0.136,771.9,01.15,0.508
2014-02-25 03:09:00,4985E-2,5C000490,-0724,1375,6275,019.9,045.1,0.136,771.9,01.15,0.508
2014-02-25 03:10:00,4955E-2,5C000490,-0724,1375,6323,019.9,045.0,0.135,771.9,01.15,0.508
2014-02-25 03:11:00,4906E-2,5C000490,-0724,1375,6286,019.9,045.1,0.136,771.8,01.15,0.508
2014-02-25 03:12:00,5002E-2,5C000490,-0724,1375,6202,019.9,045.1,0.135,772.0,01.15,0.508
2014-02-25 03:13:00,5008E-2,5C000490,-0724,1375,6197,019.9,045.1,0.135,771.9,01.15,0.508
2014-02-25 03:14:00,5003E-2,5C000490,-0724,1375,6138,019.9,045.1,0.135,771.8,01.15,0.508
2014-02-25 03:15:00,4976E-2,5C000490,-0724,1375,6140,019.9,045.1,0.135,771.8,01.15,0.508
2014-02-25 03:16:00,4987E-2,5C000490,-0724,1375,6121,019.9,045.0,0.135,771.8,01.15,0.508
2014-02-25 03:17:00,4963E-2,5C000490,-0724,1375,6150,019.9,045.1,0.135,771.8,01.15,0.508
2014-02-25 03:18:00,4968E-2,5C000490,-0724,1375,6073,020.0,045.0,0.135,771.8,01.15,0.508
2014-02-25 03:19:00,4973E-2,5C000490,-0724,1375,6087,020.0,045.0,0.135,771.7,01.15,0.508
2014-02-25 03:20:00,5032E-2,5C000490,-0724,1375,6016,020.0,045.0,0.135,771.8,01.15,0.508
2014-02-25 03:21:00,5028E-2,5C000490,-0724,1375,6038,020.0,045.1,0.135,771.9,01.15,0.508
2014-02-25 03:22:00,4987E-2,5C000490,-0724,1375,6079,020.0,045.0,0.135,771.8,01.15,0.508
2014-02-25 03:23:00,5044E-2,5C000490,-0724,1375,6117,020.0,045.0,0.135,771.8,01.15,0.508
2014-02-25 03:24:00,4988E-2,5C000490,-0724,1375,6015,020.0,045.1,0.135,771.8,01.15,0.508
2014-02-25 03:25:00,4933E-2,5C000490,-0724,1375,5936,020.0,045.1,0.135,771.9,01.15,0.508
2014-02-25 03:26:00,5027E-2,5C000490,-0724,1375,5967,020.0,045.1,0.135,771.8,01.15,0.508
2014-02-25 03:27:00,4978E-2,5C000490,-0724,1375,6076,020.0,045.1,0.135,771.9,01.15,0.508
2014-02-25 03:28:00,4970E-2,5C000490,-0724,1375,6007,020.0,045.1,0.135,771.9,01.15,0.508
2014-02-25 03:29:00,4973E-2,5C000490,-0724,1375,5977,020.0,045.1,0.135,771.8,01.15,0.508
2014-02-25 03:30:00,4958E-2,5C000490,-0724,1375,6024,020.1,045.0,0.135,771.8,01.15,0.508
2014-02-25 03:31:00,4952E-2,5C000490,-0724,1375,5935,020.1,045.1,0.135,771.8,01.15,0.508
2014-02-25 03:32:00,4955E-2,5C000490,-0724,1375,6025,020.1,045.0,0.135,771.9,01.15,0.508
2014-02-25 03:33:00,5003E-2,5C000490,-0724,1375,5942,020.1,045.1,0.135,771.9,01.15,0.508
2014-02-25 03:34:00,5015E-2,5C000490,-0724,1375,5863,020.1,045.0,0.135,771.8,01.15,0.508
2014-02-25 03:35:00,4978E-2,5C000490,-0724,1375,5965,020.1,045.1,0.135,771.8,01.15,0.508
2014-02-25 03:36:00,4992E-2,5C000490,-0724,1375,5797,020.1,045.1,0.135,771.9,01.15,0.508
2014-02-25 03:37:00,5020E-2,5C000490,-0724,1375,5886,020.1,045.1,0.135,771.9,01.15,0.508
2014-02-25 03:38:00,5000E-2,5C000490,-0724,1375,5861,020.1,045.1,0.135,771.8,01.15,0.508
2014-02-25 03:39:00,5037E-2,5C000490,-0724,1375,5867,020.1,045.0,0.135,771.9,01.15,0.508
2014-02-25 03:40:00,5059E-2,5C000490,-0724,1375,5837,020.1,045.1,0.135,771.9,01.15,0.508
2014-02-25 03:41:00,5032E-2,5C000490,-0724,1375,5820,020.1,045.1,0.135,771.8,01.15,0.508
2014-02-25 03:42:00,5012E-2,5C000490,-0724,1375,5738,020.1,045.0,0.135,771.8,01.15,0.508
2014-02-25 03:43:00,5018E-2,5C000490,-0724,1375,5814,020.1,045.0,0.135,771.8,01.15,0.508
2014-02-25 03:44:00,5073E-2,5C000490,-0724,1375,5796,020.2,045.0,0.135,771.8,01.15,0.508
2014-02-25 03:45:00,5068E-2,5C000490,-0724,1375,5682,020.1,045.0,0.134,771.8,01.15,0.508
2014-02-25 03:46:00,5075E-2,5C000490,-0724,1375,5717,020.2,045.0,0.134,771.9,01.15,0.508
2014-02-25 03:47:00,5071E-2,5C000490,-0724,1375,5721,020.1,045.1,0.134,772.0,01.15,0.508
2014-02-25 03:48:00,5038E-2,5C000490,-0724,1375,5735,020.1,045.1,0.134,771.9,01.15,0.508
2014-02-25 03:49:00,5054E-2,5C000490,-0724,1375,5701,020.2,045.1,0.134,771.9,01.15,0.508
2014-02-25 03:50:00,5068E-2,5C000490,-0724,1375,5755,020.2,045.1,0.134,772.0,01.15,0.508
2014-02-25 03:51:00,5036E-2,5C000490,-0724,1375,5771,020.2,045.1,0.134,771.9,01.15,0.508
2014-02-25 03:52:00,5018E-2,5C000490,-0724,1375,5783,020.2,045.1,0.134,771.9,01.15,0.508
2014-02-25 03:53:00,5090E-2,5C000490,-0724,1375,5703,020.2,045.1,0.134,771.8,01.15,0.508
2014-02-25 03:54:00,5012E-2,5C000490,-0724,1375,5792,020.2,045.1,0.134,771.9,01.15,0.508
2014-02-25 03:55:00,5063E-2,5C000490,-0724,1375,5730,020.2,045.1,0.134,772.0,01.15,0.508
2014-02-25 03:56:00,5023E-2,5C000490,-0724,1375,5743,020.2,045.1,0.134,771.9,01.15,0.508
2014-02-25 03:57:00,5082E-2,5C000490,-0724,1375,5705,020.2,045.0,0.134,771.8,01.15,0.508
2014-02-25 03:58:00,5066E-2,5C000490,-0724,1375,5772,020.2,045.0,0.134,771.9,01.15,0.508
2014-02-25 03:59:00,5121E-2,5C000490,-0724,1375,5728,020.2,045.1,0.134,772.0,01.15,0.508
2014-02-25 04:00:00,5067E-2,5C000490,-0724,1375,5705,020.2,045.1,0.134,771.9,01.15,0.508
2014-02-25 04:01:00,5067E-2,5C000490,-0724,1375,5740,020.2,045.1,0.134,771.9,01.15,0.508
2014-02-25 04:02:00,5079E-2,5C000490,-0724,1375,5709,020.2,045.0,0.134,771.9,01.15,0.508
2014-02-25 04:03:00,5069E-2,5C000490,-0724,1375,5700,020.2,045.1,0.134,771.9,01.15,0.508
2014-02-25 04:04:00,5024E-2,5C000490,-0724,1375,5599,020.2,045.1,0.134,772.0,01.15,0.508
2014-02-25 04:05:00,5040E-2,5C000490,-0724,1375,5697,020.3,045.1,0.134,771.9,01.15,0.508
2014-02-25 04:06:00,5106E-2,5C000490,-0724,1375,5684,020.3,045.0,0.134,771.8,01.15,0.508
2014-02-25 04:07:00,5022E-2,5C000490,-0724,1375,5707,020.3,045.1,0.134,771.9,01.15,0.508
2014-02-25 04:08:00,5086E-2,5C000490,-0724,1375,5703,020.3,045.1,0.134,772.0,01.15,0.508
2014-02-25 04:09:00,4991E-2,5C000490,-0724,1375,5597,020.3,045.1,0.134,772.0,01.15,0.508
2014-02-25 04:10:00,5098E-2,5C000490,-0724,1375,5608,020.3,045.1,0.134,772.0,01.15,0.508
2014-02-25 04:11:00,5102E-2,5C000490,-0724,1375,5538,020.3,045.0,0.134,771.8,01.15,0.508
2014-02-25 04:12:00,5047E-2,5C000490,-0724,1375,5551,020.3,045.1,0.134,771.8,01.15,0.508
2014-02-25 04:13:00,5059E-2,5C000490,-0724,1375,5543,020.3,045.1,0.134,772.0,01.15,0.508
2014-02-25 04:14:00,5085E-2,5C000490,-0724,1375,5583,020.3,045.1,0.134,772.0,01.15,0.508
2014-02-25 04:15:00,5098E-2,5C000490,-0724,1375,5574,020.3,045.1,0.134,771.9,01.15,0.508
2014-02-25 04:16:00,5063E-2,5C000490,-0724,1375,5478,020.3,045.1,0.134,772.0,01.15,0.508
2014-02-25 04:17:00,5059E-2,5C000490,-0724,1375,5527,020.3,045.0,0.134,771.9,01.15,0.508
2014-02-25 04:18:00,5064E-2,5C000490,-0724,1375,5519,020.4,045.0,0.134,771.9,01.15,0.508
2014-02-25 04:19:00,5137E-2,5C000490,-0724,1375,5564,020.3,045.1,0.134,771.9,01.15,0.508
2014-02-25 04:20:00,5086E-2,5C000490,-0724,1375,5504,020.3,045.1,0.134,772.0,01.15,0.508
2014-02-25 04:21:00,5093E-2,5C000490,-0724,1375,5482,020.4,045.1,0.134,772.0,01.15,0.508
2014-02-25 04:22:00,5151E-2,5C000490,-0724,1375,5480,020.4,045.1,0.134,771.9,01.15,0.508
2014-02-25 04:23:00,5051E-2,5C000490,-0724,1375,5470,020.4,045.1,0.134,771.9,01.15,0.508